Overview Statistics Trail Chart Weather Telemetry Raw packets
 

This is the latest recevied weather packets stored in our database for station/object W8RSN-13. If no packets are shown the sender has not sent any weather packets the latest 10 day(s).

<< 41 42 43 44 45 46 47 >>
Time Temp. Humidity Pressure Rain* Wind** Luminosity Snow
1788402270 23.33° C 48% 1015.6 hPa - - - -
1788401969 23.33° C 48% 1015.7 hPa - - - -
1788401668 23.89° C 49% 1015.5 hPa - - - -
1788401367 23.89° C 49% 1015.5 hPa - - - -
1788401067 23.89° C 49% 1015.4 hPa - - - -
1788400765 24.44° C 48% 1015.5 hPa - - - -
1788400464 24.44° C 48% 1015.5 hPa - - - -
1788400164 25° C 47% 1015.5 hPa - - - -
1788399863 25.56° C 46% 1015.4 hPa - - - -
1788399562 25.56° C 46% 1015.2 hPa - - - -
1788399261 26.11° C 45% 1015.3 hPa - - - -
1788398960 25.56° C 46% 1015.2 hPa - - - -
1788398659 26.11° C 45% 1015.1 hPa - - - -
1788398358 26.11° C 44% 1015.3 hPa - - - -
1788398057 26.67° C 43% 1015.1 hPa - - - -
1788397756 27.22° C 41% 1015.1 hPa - - - -
1788397455 27.22° C 42% 1014.9 hPa - - - -
1788397175 27.22° C 42% 1014.9 hPa - - - -
1788396874 27.78° C 41% 1014.8 hPa - - - -
1788396573 27.78° C 40% 1014.9 hPa - - - -
1788396272 27.22° C 41% 1014.9 hPa - - - -
1788395971 27.78° C 40% 1014.8 hPa - - - -
1788395670 27.78° C 40% 1014.7 hPa - - - -
1788395369 28.33° C 39% 1014.6 hPa - - - -
1788395068 28.33° C 39% 1014.9 hPa - - - -

* Rain since midnight (hover to see other rain measurements)
** Current wind speed in m/s (hover to see current wind gust speed)